Terminal Aerodrome Forecast
Issued by NWS

Home | Current Version | Previous Version | Text Only | Print | Product List | Glossary On
Versions: 1 2 3 4 5 6 7 8 9 10 11 12 13
000
FTUS46 KSTO 222300
TAFRBL
TAF
KRBL 222333Z 2300/2324 16012G20KT P6SM SCT150
     FM230400 16008KT P6SM SCT200
     FM232000 16012G19KT P6SM FEW200=

USA.gov is the U.S. government's official web portal to all federal, state and local government web resources and services.